EN

Hourly Weather Lablawki

Today, 4 August, Wednesday

Time Temperature Precipitation Wind Pressure Humidity
00:00 +14°C° 0 mm 1 mps 755 mmHg 87%
01:00 +13°C° 0 mm 1 mps 755 mmHg 88%
02:00 +13°C° 0 mm 1 mps 755 mmHg 89%
03:00 +13°C° 0 mm 1 mps 755 mmHg 89%
04:00 +13°C° 0 mm 1 mps 755 mmHg 90%
05:00 +13°C° 0 mm 0 mps 755 mmHg 86%
06:00 +14°C° 0 mm 0 mps 755 mmHg 82%
07:00 +16°C° 0 mm 0 mps 756 mmHg 78%
08:00 +17°C° 0.1 mm 0 mps 756 mmHg 71%
09:00 +21°C° 0.1 mm 1 mps 756 mmHg 65%
10:00 +22°C° 0.1 mm 1 mps 756 mmHg 59%
11:00 +23°C° 0.4 mm 1 mps 755 mmHg 58%
12:00 +23°C° 0.4 mm 1 mps 755 mmHg 57%
13:00 +23°C° 0.4 mm 1 mps 755 mmHg 56%
14:00 +23°C° 0.5 mm 1 mps 755 mmHg 60%
15:00 +22°C° 0.5 mm 1 mps 755 mmHg 63%
16:00 +20°C° 0.5 mm 2 mps 755 mmHg 67%
17:00 +20°C° 0.4 mm 1 mps 755 mmHg 72%
18:00 +19°C° 0.4 mm 1 mps 755 mmHg 77%
19:00 +18°C° 0.4 mm 1 mps 755 mmHg 82%
20:00 +16°C° 0 mm 1 mps 755 mmHg 85%
21:00 +15°C° 0 mm 1 mps 755 mmHg 87%
22:00 +15°C° 0 mm 1 mps 755 mmHg 90%
23:00 +14°C° 0 mm 1 mps 755 mmHg 91%

Tomorrow, 5 August, Thursday

Time Temperature Precipitation Wind Pressure Humidity
00:00 +14°C° 0 mm 1 mps 755 mmHg 91%
01:00 +14°C° 0 mm 1 mps 755 mmHg 91%
02:00 +14°C° 0 mm 1 mps 755 mmHg 92%
03:00 +14°C° 0 mm 1 mps 754 mmHg 92%
04:00 +13°C° 0 mm 1 mps 754 mmHg 92%
05:00 +15°C° 0 mm 1 mps 754 mmHg 88%
06:00 +16°C° 0 mm 1 mps 754 mmHg 85%
07:00 +18°C° 0 mm 1 mps 754 mmHg 81%
08:00 +19°C° 0 mm 2 mps 754 mmHg 74%
09:00 +20°C° 0 mm 2 mps 754 mmHg 67%
10:00 +22°C° 0 mm 3 mps 754 mmHg 59%
11:00 +22°C° 0 mm 3 mps 754 mmHg 56%
12:00 +24°C° 0 mm 3 mps 753 mmHg 52%
13:00 +25°C° 0 mm 3 mps 753 mmHg 48%
14:00 +24°C° 0 mm 3 mps 753 mmHg 53%
15:00 +22°C° 0 mm 3 mps 753 mmHg 58%
16:00 +22°C° 0 mm 3 mps 752 mmHg 63%
17:00 +21°C° 0 mm 3 mps 752 mmHg 65%
18:00 +20°C° 0 mm 3 mps 752 mmHg 67%
19:00 +19°C° 0 mm 3 mps 752 mmHg 69%
20:00 +18°C° 0 mm 3 mps 752 mmHg 75%
21:00 +17°C° 0 mm 3 mps 752 mmHg 80%
22:00 +16°C° 0 mm 3 mps 752 mmHg 85%
23:00 +16°C° 0 mm 3 mps 752 mmHg 88%

Day after tomorrow, 6 August, Friday

Time Temperature Precipitation Wind Pressure Humidity
00:00 +14°C° 0 mm 3 mps 751 mmHg 91%
01:00 +13°C° 0 mm 3 mps 751 mmHg 94%
02:00 +13°C° 0 mm 3 mps 751 mmHg 94%
03:00 +12°C° 0 mm 3 mps 751 mmHg 94%
04:00 +12°C° 0 mm 3 mps 751 mmHg 95%
05:00 +13°C° 0 mm 4 mps 751 mmHg 89%
06:00 +14°C° 0 mm 5 mps 751 mmHg 83%
07:00 +15°C° 0 mm 6 mps 750 mmHg 77%
08:00 +16°C° 0 mm 6 mps 750 mmHg 72%
09:00 +19°C° 0 mm 6 mps 750 mmHg 66%
10:00 +20°C° 0 mm 6 mps 750 mmHg 60%
11:00 +20°C° 0 mm 6 mps 750 mmHg 60%
12:00 +21°C° 0 mm 5 mps 750 mmHg 59%
13:00 +21°C° 0 mm 5 mps 750 mmHg 59%
14:00 +21°C° 0 mm 4 mps 750 mmHg 63%
15:00 +21°C° 0 mm 4 mps 750 mmHg 66%
16:00 +20°C° 0 mm 4 mps 750 mmHg 70%
17:00 +19°C° 0.1 mm 3 mps 750 mmHg 76%
18:00 +18°C° 0.1 mm 2 mps 750 mmHg 81%
19:00 +17°C° 0.1 mm 2 mps 751 mmHg 87%
20:00 +18°C° 0 mm 1 mps 751 mmHg 87%
21:00 +16°C° 0 mm 1 mps 751 mmHg 88%
22:00 +16°C° 0 mm 1 mps 751 mmHg 88%
23:00 +16°C° 0 mm 1 mps 751 mmHg 88%

7 August, Saturday

Time Temperature Precipitation Wind Pressure Humidity
00:00 +16°C° 0 mm 1 mps 751 mmHg 89%
01:00 +15°C° 0 mm 2 mps 751 mmHg 89%
02:00 +15°C° 0 mm 2 mps 751 mmHg 90%
03:00 +15°C° 0 mm 2 mps 751 mmHg 90%
04:00 +14°C° 0 mm 2 mps 751 mmHg 91%
05:00 +15°C° 0 mm 2 mps 751 mmHg 85%
06:00 +17°C° 0 mm 2 mps 751 mmHg 80%
07:00 +18°C° 0 mm 2 mps 751 mmHg 74%
08:00 +19°C° 0 mm 2 mps 751 mmHg 68%
09:00 +21°C° 0 mm 2 mps 751 mmHg 61%
10:00 +22°C° 0 mm 3 mps 751 mmHg 55%
11:00 +24°C° 0 mm 3 mps 751 mmHg 52%
12:00 +24°C° 0 mm 3 mps 751 mmHg 49%
13:00 +25°C° 0 mm 3 mps 751 mmHg 46%
14:00 +25°C° 0 mm 3 mps 751 mmHg 46%
15:00 +23°C° 0 mm 4 mps 751 mmHg 46%
16:00 +23°C° 0 mm 4 mps 752 mmHg 47%
17:00 +21°C° 0 mm 3 mps 752 mmHg 54%
18:00 +19°C° 0 mm 3 mps 752 mmHg 61%
19:00 +18°C° 0 mm 2 mps 752 mmHg 68%
20:00 +16°C° 0 mm 2 mps 752 mmHg 71%
21:00 +15°C° 0 mm 1 mps 753 mmHg 74%
22:00 +14°C° 0 mm 1 mps 753 mmHg 77%
23:00 +14°C° 0 mm 1 mps 753 mmHg 77%

8 August, Sunday

Time Temperature Precipitation Wind Pressure Humidity
00:00 +14°C° 0 mm 1 mps 753 mmHg 77%
01:00 +14°C° 0 mm 1 mps 753 mmHg 77%
02:00 +14°C° 0 mm 2 mps 753 mmHg 77%
03:00 +14°C° 0 mm 2 mps 753 mmHg 77%
04:00 +14°C° 0 mm 2 mps 753 mmHg 78%
05:00 +16°C° 0 mm 2 mps 753 mmHg 73%
06:00 +18°C° 0 mm 2 mps 753 mmHg 69%
07:00 +20°C° 0 mm 3 mps 753 mmHg 65%
08:00 +21°C° 0 mm 3 mps 753 mmHg 62%
09:00 +24°C° 0 mm 3 mps 753 mmHg 58%
10:00 +25°C° 0 mm 3 mps 753 mmHg 54%
11:00 +25°C° 0 mm 3 mps 753 mmHg 58%
12:00 +25°C° 0 mm 3 mps 754 mmHg 61%
13:00 +24°C° 0 mm 3 mps 754 mmHg 64%
14:00 +23°C° 0.1 mm 2 mps 754 mmHg 71%
15:00 +21°C° 0.1 mm 2 mps 754 mmHg 79%
16:00 +20°C° 0.1 mm 2 mps 755 mmHg 86%
17:00 +19°C° 0.1 mm 2 mps 755 mmHg 88%
18:00 +19°C° 0.1 mm 2 mps 755 mmHg 91%
19:00 +19°C° 0.1 mm 1 mps 756 mmHg 94%
20:00 +19°C° 0 mm 1 mps 756 mmHg 94%
21:00 +18°C° 0 mm 1 mps 756 mmHg 94%
22:00 +18°C° 0 mm 1 mps 756 mmHg 94%
23:00 +18°C° 0 mm 1 mps 756 mmHg 93%

9 August, Monday

Time Temperature Precipitation Wind Pressure Humidity
00:00 +16°C° 0 mm 1 mps 756 mmHg 92%
01:00 +16°C° 0 mm 1 mps 756 mmHg 92%
02:00 +16°C° 0 mm 1 mps 756 mmHg 91%
03:00 +16°C° 0 mm 1 mps 756 mmHg 91%
04:00 +16°C° 0 mm 1 mps 756 mmHg 91%
05:00 +18°C° 0 mm 1 mps 757 mmHg 88%
06:00 +18°C° 0 mm 2 mps 757 mmHg 85%
07:00 +20°C° 0 mm 2 mps 757 mmHg 81%
08:00 +21°C° 0.2 mm 2 mps 757 mmHg 76%
09:00 +21°C° 0.2 mm 3 mps 757 mmHg 71%
10:00 +22°C° 0.2 mm 3 mps 757 mmHg 65%
11:00 +25°C° 0 mm 3 mps 757 mmHg 58%
12:00 +26°C° 0 mm 3 mps 757 mmHg 51%
13:00 +27°C° 0 mm 3 mps 757 mmHg 44%
14:00 +27°C° 0 mm 3 mps 757 mmHg 46%
15:00 +26°C° 0 mm 3 mps 757 mmHg 49%
16:00 +26°C° 0 mm 3 mps 757 mmHg 52%
17:00 +22°C° 0.7 mm 3 mps 758 mmHg 64%
18:00 +20°C° 0.7 mm 3 mps 758 mmHg 77%
19:00 +17°C° 0.7 mm 2 mps 758 mmHg 89%
20:00 +17°C° 0 mm 2 mps 758 mmHg 90%
21:00 +17°C° 0 mm 2 mps 759 mmHg 90%
22:00 +16°C° 0 mm 1 mps 759 mmHg 91%
23:00 +16°C° 0 mm 1 mps 759 mmHg 91%
Show more